Wetterdaten: Montag, 16.02.2015
Datum Zeit Temp. A. Feuchte A. Luftdruck Regen Wind Richtung Richtung Sonnenschein ET UV Solar Taupunkt Windchill Windben Empfang
16.02.2015 00:00 -3,0 C 80 % 1016,4 hPa 0,0 l/m 0,0 km/h (0 Bft) S 186 0 min 0,000 mm 0,0 UV-I 0 W/m -6,0 C -3,0 C 0,0 km/h (0 Bft) 0,00 %
16.02.2015 00:15 -3,3 C 80 % 1016,5 hPa 0,0 l/m 0,0 km/h (0 Bft) S-SW 195 0 min 0,000 mm 0,0 UV-I 0 W/m -6,2 C -3,3 C 0,0 km/h (0 Bft) 0,00 %
16.02.2015 00:30 -3,4 C 80 % 1016,6 hPa 0,0 l/m 0,0 km/h (0 Bft) S 188 0 min 0,000 mm 0,0 UV-I 0 W/m -6,3 C -3,4 C 0,0 km/h (0 Bft) 0,00 %
16.02.2015 00:45 -3,3 C 80 % 1016,5 hPa 0,0 l/m 0,0 km/h (0 Bft) S 186 0 min 0,000 mm 0,0 UV-I 0 W/m -6,2 C -3,3 C 0,0 km/h (0 Bft) 0,00 %
16.02.2015 01:00 -3,5 C 81 % 1016,6 hPa 0,0 l/m 0,0 km/h (0 Bft) S-SW 202 0 min 0,000 mm 0,0 UV-I 0 W/m -6,3 C -3,5 C 0,0 km/h (0 Bft) 0,00 %
16.02.2015 01:15 -3,7 C 81 % 1016,9 hPa 0,0 l/m 0,0 km/h (0 Bft) S 185 0 min 0,000 mm 0,0 UV-I 0 W/m -6,5 C -3,7 C 0,0 km/h (0 Bft) 0,00 %
16.02.2015 01:30 -3,7 C 81 % 1017,1 hPa 0,0 l/m 0,0 km/h (0 Bft) S-SW 205 0 min 0,000 mm 0,0 UV-I 0 W/m -6,5 C -3,7 C 0,0 km/h (0 Bft) 0,00 %
16.02.2015 01:45 -3,6 C 81 % 1017,3 hPa 0,0 l/m 0,0 km/h (0 Bft) S 182 0 min 0,000 mm 0,0 UV-I 0 W/m -6,4 C -3,6 C 0,0 km/h (0 Bft) 0,00 %
16.02.2015 02:00 -3,7 C 81 % 1017,3 hPa 0,0 l/m 0,0 km/h (0 Bft) S 186 0 min 0,000 mm 0,0 UV-I 0 W/m -6,5 C -3,7 C 0,0 km/h (0 Bft) 0,00 %
16.02.2015 02:15 -3,8 C 81 % 1017,2 hPa 0,0 l/m 0,0 km/h (0 Bft) S 186 0 min 0,000 mm 0,0 UV-I 0 W/m -6,6 C -3,8 C 0,0 km/h (0 Bft) 0,00 %
16.02.2015 02:30 -4,0 C 81 % 1017,5 hPa 0,0 l/m 0,0 km/h (0 Bft) S 190 0 min 0,000 mm 0,0 UV-I 0 W/m -6,8 C -4,0 C 0,0 km/h (0 Bft) 0,00 %
16.02.2015 02:45 -4,1 C 81 % 1017,5 hPa 0,0 l/m 0,0 km/h (0 Bft) S 190 0 min 0,000 mm 0,0 UV-I 0 W/m -6,9 C -4,1 C 0,0 km/h (0 Bft) 0,00 %
16.02.2015 03:00 -4,3 C 81 % 1017,5 hPa 0,0 l/m 0,0 km/h (0 Bft) S-SW 198 0 min 0,000 mm 0,0 UV-I 0 W/m -7,1 C -4,3 C 0,0 km/h (0 Bft) 0,00 %
16.02.2015 03:15 -4,5 C 82 % 1017,6 hPa 0,0 l/m 0,0 km/h (0 Bft) S 179 0 min 0,000 mm 0,0 UV-I 0 W/m -7,1 C -4,5 C 0,0 km/h (0 Bft) 0,00 %
16.02.2015 03:30 -4,6 C 82 % 1017,7 hPa 0,0 l/m 0,0 km/h (0 Bft) W-SW 250 0 min 0,000 mm 0,0 UV-I 0 W/m -7,2 C -4,6 C 0,0 km/h (0 Bft) 0,00 %
16.02.2015 03:45 -4,7 C 81 % 1018,0 hPa 0,0 l/m 0,0 km/h (0 Bft) S 191 0 min 0,000 mm 0,0 UV-I 0 W/m -7,4 C -4,7 C 0,0 km/h (0 Bft) 0,00 %
16.02.2015 04:00 -4,9 C 81 % 1018,1 hPa 0,0 l/m 0,0 km/h (0 Bft) S-SW 203 0 min 0,000 mm 0,0 UV-I 0 W/m -7,6 C -4,9 C 0,0 km/h (0 Bft) 0,00 %
16.02.2015 04:15 -5,0 C 81 % 1018,2 hPa 0,0 l/m 0,0 km/h (0 Bft) S 180 0 min 0,000 mm 0,0 UV-I 0 W/m -7,7 C -5,0 C 0,0 km/h (0 Bft) 0,00 %
16.02.2015 04:30 -5,2 C 81 % 1018,5 hPa 0,0 l/m 0,0 km/h (0 Bft) S-SW 209 0 min 0,000 mm 0,0 UV-I 0 W/m -7,9 C -5,2 C 0,0 km/h (0 Bft) 0,00 %
16.02.2015 04:45 -5,0 C 81 % 1018,4 hPa 0,0 l/m 0,0 km/h (0 Bft) S 179 0 min 0,000 mm 0,0 UV-I 0 W/m -7,7 C -5,0 C 0,0 km/h (0 Bft) 0,00 %
16.02.2015 05:00 -5,1 C 81 % 1018,6 hPa 0,0 l/m 0,0 km/h (0 Bft) S-SW 195 0 min 0,000 mm 0,0 UV-I 0 W/m -7,8 C -5,1 C 0,0 km/h (0 Bft) 0,00 %
16.02.2015 05:15 -5,3 C 81 % 1018,8 hPa 0,0 l/m 0,0 km/h (0 Bft) S-SW 202 0 min 0,000 mm 0,0 UV-I 0 W/m -8,0 C -5,3 C 0,0 km/h (0 Bft) 0,00 %
16.02.2015 05:30 -5,2 C 80 % 1018,7 hPa 0,0 l/m 0,0 km/h (0 Bft) SW 216 0 min 0,000 mm 0,0 UV-I 0 W/m -8,1 C -5,2 C 0,0 km/h (0 Bft) 0,00 %
16.02.2015 05:45 -5,4 C 80 % 1018,7 hPa 0,0 l/m 0,0 km/h (0 Bft) S 191 0 min 0,000 mm 0,0 UV-I 0 W/m -8,3 C -5,4 C 0,0 km/h (0 Bft) 0,00 %
16.02.2015 06:00 -5,4 C 80 % 1018,8 hPa 0,0 l/m 0,0 km/h (0 Bft) S-SW 192 0 min 0,000 mm 0,0 UV-I 0 W/m -8,3 C -5,4 C 0,0 km/h (0 Bft) 0,00 %
16.02.2015 06:15 -5,6 C 81 % 1019,1 hPa 0,0 l/m 0,0 km/h (0 Bft) S-SW 200 0 min 0,000 mm 0,0 UV-I 0 W/m -8,3 C -5,6 C 0,0 km/h (0 Bft) 0,00 %
16.02.2015 06:30 -5,6 C 81 % 1019,3 hPa 0,0 l/m 0,0 km/h (0 Bft) W-SW 249 0 min 0,000 mm 0,0 UV-I 0 W/m -8,3 C -5,6 C 0,0 km/h (0 Bft) 0,00 %
16.02.2015 06:45 -5,7 C 81 % 1019,6 hPa 0,0 l/m 0,0 km/h (0 Bft) SW 215 0 min 0,000 mm 0,0 UV-I 0 W/m -8,4 C -5,7 C 0,0 km/h (0 Bft) 0,00 %
16.02.2015 07:00 -5,7 C 81 % 1019,8 hPa 0,0 l/m 0,0 km/h (0 Bft) S-SW 203 0 min 0,000 mm 0,0 UV-I 0 W/m -8,4 C -5,7 C 0,0 km/h (0 Bft) 0,00 %
16.02.2015 07:15 -5,8 C 81 % 1020,1 hPa 0,0 l/m 0,0 km/h (0 Bft) S 189 0 min 0,000 mm 0,0 UV-I 0 W/m -8,5 C -5,8 C 0,0 km/h (0 Bft) 0,00 %
16.02.2015 07:30 -5,5 C 81 % 1020,0 hPa 0,0 l/m 0,0 km/h (0 Bft) S-SW 210 0 min 0,000 mm 0,0 UV-I 15 W/m -8,2 C -5,5 C 0,0 km/h (0 Bft) 0,00 %
16.02.2015 07:45 -5,4 C 80 % 1020,1 hPa 0,0 l/m 0,0 km/h (0 Bft) S-SW 198 0 min 0,000 mm 0,0 UV-I 29 W/m -8,3 C -5,4 C 0,0 km/h (0 Bft) 0,00 %
16.02.2015 08:00 -5,1 C 80 % 1020,3 hPa 0,0 l/m 0,0 km/h (0 Bft) S-SW 199 0 min 0,000 mm 0,0 UV-I 43 W/m -8,0 C -5,1 C 0,0 km/h (0 Bft) 0,00 %
16.02.2015 08:15 -4,3 C 79 % 1019,9 hPa 0,0 l/m 0,0 km/h (0 Bft) S-SW 206 0 min 0,000 mm 1,0 UV-I 70 W/m -7,4 C -4,3 C 0,0 km/h (0 Bft) 0,00 %
16.02.2015 08:30 -3,2 C 78 % 1020,0 hPa 0,0 l/m 0,0 km/h (0 Bft) S-SW 201 0 min 0,000 mm 1,0 UV-I 90 W/m -6,5 C -3,2 C 0,0 km/h (0 Bft) 0,00 %
16.02.2015 08:45 -2,4 C 82 % 1019,9 hPa 0,0 l/m 0,0 km/h (0 Bft) S-SW 196 0 min 0,000 mm 1,0 UV-I 120 W/m -5,0 C -2,4 C 0,0 km/h (0 Bft) 0,00 %
16.02.2015 09:00 -1,9 C 82 % 1020,0 hPa 0,0 l/m 0,0 km/h (0 Bft) S-SW 204 0 min 0,000 mm 1,0 UV-I 130 W/m -4,6 C -1,9 C 0,0 km/h (0 Bft) 0,00 %
16.02.2015 09:15 -1,1 C 80 % 1019,7 hPa 0,0 l/m 0,0 km/h (0 Bft) S-SW 200 0 min 0,000 mm 1,0 UV-I 150 W/m -4,1 C -1,1 C 0,0 km/h (0 Bft) 0,00 %
16.02.2015 09:30 -0,4 C 74 % 1019,7 hPa 0,0 l/m 0,0 km/h (0 Bft) SW 214 0 min 0,000 mm 2,0 UV-I 160 W/m -4,5 C -0,4 C 0,0 km/h (0 Bft) 0,00 %
16.02.2015 09:45 0,2 C 70 % 1019,6 hPa 0,0 l/m 0,0 km/h (0 Bft) S-SW 198 0 min 0,000 mm 2,0 UV-I 170 W/m -4,6 C 0,2 C 0,0 km/h (0 Bft) 0,00 %
16.02.2015 10:00 0,7 C 69 % 1019,6 hPa 0,3 l/m 0,0 km/h (0 Bft) S 186 0 min 0,000 mm 2,0 UV-I 180 W/m -4,3 C 0,7 C 0,0 km/h (0 Bft) 0,00 %
16.02.2015 10:15 0,4 C 71 % 1019,6 hPa 0,0 l/m 0,0 km/h (0 Bft) W-SW 248 0 min 0,000 mm 2,0 UV-I 177 W/m -4,2 C 0,4 C 0,0 km/h (0 Bft) 0,00 %
16.02.2015 10:30 0,5 C 71 % 1019,5 hPa 0,0 l/m 0,0 km/h (0 Bft) S-SW 207 0 min 0,000 mm 2,0 UV-I 176 W/m -4,1 C 0,5 C 0,0 km/h (0 Bft) 0,00 %
16.02.2015 10:45 1,2 C 70 % 1019,7 hPa 0,0 l/m 0,0 km/h (0 Bft) SW 226 0 min 0,000 mm 2,0 UV-I 199 W/m -3,7 C 1,2 C 0,0 km/h (0 Bft) 0,00 %
16.02.2015 11:00 1,7 C 69 % 1019,6 hPa 0,0 l/m 0,0 km/h (0 Bft) SW 231 0 min 0,000 mm 2,0 UV-I 222 W/m -3,4 C 1,7 C 0,0 km/h (0 Bft) 0,00 %
16.02.2015 11:15 1,9 C 70 % 1019,6 hPa 0,0 l/m 0,0 km/h (0 Bft) S 175 0 min 0,000 mm 2,0 UV-I 233 W/m -3,0 C 1,9 C 0,0 km/h (0 Bft) 0,00 %
16.02.2015 11:30 2,1 C 69 % 1019,3 hPa 0,0 l/m 0,0 km/h (0 Bft) SW 228 0 min 0,000 mm 2,0 UV-I 244 W/m -3,0 C 2,1 C 0,0 km/h (0 Bft) 0,00 %
16.02.2015 11:45 2,5 C 73 % 1017,9 hPa 0,0 l/m 0,0 km/h (0 Bft) SW 224 0 min 0,000 mm 2,0 UV-I 255 W/m -1,8 C 2,5 C 0,0 km/h (0 Bft) 0,00 %
16.02.2015 12:00 2,7 C 73 % 1018,0 hPa 0,0 l/m 0,0 km/h (0 Bft) S-SW 207 0 min 0,000 mm 2,0 UV-I 266 W/m -1,6 C 2,7 C 0,0 km/h (0 Bft) 0,00 %
16.02.2015 12:15 3,2 C 73 % 1017,8 hPa 0,0 l/m 0,0 km/h (0 Bft) SW 214 0 min 0,000 mm 2,0 UV-I 255 W/m -1,2 C 3,2 C 0,0 km/h (0 Bft) 0,00 %
16.02.2015 12:30 4,6 C 64 % 1017,3 hPa 0,0 l/m 1,8 km/h (1 Bft) O-SO 113 0 min 0,000 mm 2,0 UV-I 244 W/m -1,6 C 4,6 C 4,0 km/h (1 Bft) 0,00 %
16.02.2015 12:45 5,2 C 61 % 1017,4 hPa 0,0 l/m 7,2 km/h (2 Bft) O-SO 107 0 min 0,000 mm 2,0 UV-I 255 W/m -1,7 C 4,5 C 7,9 km/h (2 Bft) 0,00 %
16.02.2015 13:00 5,5 C 59 % 1017,3 hPa 0,0 l/m 5,4 km/h (1 Bft) O-NO 73 0 min 0,000 mm 2,0 UV-I 267 W/m -1,9 C 5,5 C 7,9 km/h (2 Bft) 0,00 %
16.02.2015 13:15 5,8 C 59 % 1017,0 hPa 0,0 l/m 2,9 km/h (1 Bft) O 90 0 min 0,000 mm 2,0 UV-I 256 W/m -1,6 C 5,8 C 4,0 km/h (1 Bft) 0,00 %
16.02.2015 13:30 6,1 C 59 % 1016,9 hPa 0,0 l/m 3,2 km/h (1 Bft) O-SO 102 15 min 0,000 mm 2,0 UV-I 287 W/m -1,3 C 6,1 C 4,0 km/h (1 Bft) 0,00 %
16.02.2015 13:45 6,4 C 58 % 1016,6 hPa 0,0 l/m 4,3 km/h (1 Bft) O-SO 120 0 min 0,000 mm 2,0 UV-I 245 W/m -1,2 C 6,4 C 7,9 km/h (2 Bft) 0,00 %
16.02.2015 14:00 6,6 C 58 % 1016,6 hPa 0,0 l/m 5,4 km/h (1 Bft) O 101 0 min 0,000 mm 2,0 UV-I 234 W/m -1,1 C 6,6 C 7,9 km/h (2 Bft) 0,00 %
16.02.2015 14:15 6,8 C 58 % 1016,4 hPa 0,0 l/m 4,3 km/h (1 Bft) O-SO 119 0 min 0,000 mm 2,0 UV-I 222 W/m -0,9 C 6,8 C 11,9 km/h (2 Bft) 0,00 %
16.02.2015 14:30 7,0 C 58 % 1016,1 hPa 0,0 l/m 2,2 km/h (1 Bft) O-SO 104 0 min 0,000 mm 2,0 UV-I 211 W/m -0,7 C 7,0 C 4,0 km/h (1 Bft) 0,00 %
16.02.2015 14:45 7,2 C 58 % 1016,4 hPa 0,0 l/m 2,9 km/h (1 Bft) O-NO 76 15 min 0,000 mm 1,0 UV-I 245 W/m -0,5 C 7,2 C 4,0 km/h (1 Bft) 0,00 %
16.02.2015 15:00 7,4 C 58 % 1016,2 hPa 0,0 l/m 0,7 km/h (0 Bft) O-SO 102 15 min 0,000 mm 1,0 UV-I 256 W/m -0,3 C 7,4 C 4,0 km/h (1 Bft) 0,00 %
16.02.2015 15:15 7,6 C 57 % 1016,3 hPa 0,0 l/m 0,7 km/h (0 Bft) S 183 0 min 0,000 mm 1,0 UV-I 123 W/m -0,4 C 7,6 C 4,0 km/h (1 Bft) 0,00 %
16.02.2015 15:30 7,6 C 57 % 1016,3 hPa 0,0 l/m 0,4 km/h (0 Bft) S 172 0 min 0,000 mm 1,0 UV-I 134 W/m -0,4 C 7,6 C 4,0 km/h (1 Bft) 0,00 %
16.02.2015 15:45 7,9 C 56 % 1016,3 hPa 0,0 l/m 0,4 km/h (0 Bft) SO 133 0 min 0,000 mm 1,0 UV-I 135 W/m -0,3 C 7,9 C 4,0 km/h (1 Bft) 0,00 %
16.02.2015 16:00 7,9 C 56 % 1017,4 hPa 0,0 l/m 0,0 km/h (0 Bft) O 94 15 min 0,000 mm 1,0 UV-I 177 W/m -0,3 C 7,9 C 0,0 km/h (0 Bft) 0,00 %
16.02.2015 16:15 7,8 C 56 % 1017,2 hPa 0,0 l/m 0,0 km/h (0 Bft) S 175 15 min 0,000 mm 1,0 UV-I 99 W/m -0,4 C 7,8 C 0,0 km/h (0 Bft) 0,00 %
16.02.2015 16:30 7,9 C 55 % 1017,4 hPa 0,0 l/m 0,0 km/h (0 Bft) S 176 15 min 0,000 mm 1,0 UV-I 194 W/m -0,6 C 7,9 C 0,0 km/h (0 Bft) 0,00 %
16.02.2015 16:45 8,4 C 52 % 1017,5 hPa 0,0 l/m 0,0 km/h (0 Bft) S 177 15 min 0,000 mm 0,0 UV-I 137 W/m -0,9 C 8,4 C 0,0 km/h (0 Bft) 0,00 %
16.02.2015 17:00 7,5 C 58 % 1017,6 hPa 0,0 l/m 0,0 km/h (0 Bft) S-SW 198 15 min 0,000 mm 0,0 UV-I 73 W/m -0,2 C 7,5 C 0,0 km/h (0 Bft) 0,00 %
16.02.2015 17:15 5,6 C 64 % 1018,0 hPa 0,0 l/m 0,0 km/h (0 Bft) S 191 15 min 0,000 mm 0,0 UV-I 10 W/m -0,7 C 5,6 C 0,0 km/h (0 Bft) 0,00 %
16.02.2015 17:30 4,6 C 71 % 1018,1 hPa 0,0 l/m 0,0 km/h (0 Bft) S-SW 196 0 min 0,000 mm 0,0 UV-I 0 W/m -0,2 C 4,6 C 0,0 km/h (0 Bft) 0,00 %
16.02.2015 17:45 3,7 C 74 % 1018,4 hPa 0,0 l/m 0,0 km/h (0 Bft) S-SW 194 0 min 0,000 mm 0,0 UV-I 0 W/m -0,5 C 3,7 C 0,0 km/h (0 Bft) 0,00 %
16.02.2015 18:00 3,0 C 75 % 1018,9 hPa 0,0 l/m 0,0 km/h (0 Bft) S-SW 202 0 min 0,000 mm 0,0 UV-I 0 W/m -1,0 C 3,0 C 0,0 km/h (0 Bft) 0,00 %
16.02.2015 18:15 2,4 C 73 % 1019,1 hPa 0,0 l/m 0,0 km/h (0 Bft) S-SW 199 0 min 0,000 mm 0,0 UV-I 0 W/m -1,9 C 2,4 C 0,0 km/h (0 Bft) 0,00 %
16.02.2015 18:30 1,9 C 75 % 1019,4 hPa 0,0 l/m 0,0 km/h (0 Bft) S-SW 193 0 min 0,000 mm 0,0 UV-I 0 W/m -2,1 C 1,9 C 0,0 km/h (0 Bft) 0,00 %
16.02.2015 18:45 1,6 C 75 % 1019,4 hPa 0,0 l/m 0,0 km/h (0 Bft) S-SW 195 0 min 0,000 mm 0,0 UV-I 0 W/m -2,3 C 1,6 C 0,0 km/h (0 Bft) 0,00 %
16.02.2015 19:00 1,5 C 76 % 1019,5 hPa 0,0 l/m 0,0 km/h (0 Bft) S-SW 198 0 min 0,000 mm 0,0 UV-I 0 W/m -2,3 C 1,5 C 0,0 km/h (0 Bft) 0,00 %
16.02.2015 19:15 1,2 C 75 % 1019,7 hPa 0,0 l/m 0,0 km/h (0 Bft) S 181 0 min 0,000 mm 0,0 UV-I 0 W/m -2,7 C 1,2 C 0,0 km/h (0 Bft) 0,00 %
16.02.2015 19:30 0,8 C 78 % 1019,9 hPa 0,0 l/m 0,0 km/h (0 Bft) S 189 0 min 0,000 mm 0,0 UV-I 0 W/m -2,6 C 0,8 C 0,0 km/h (0 Bft) 0,00 %
16.02.2015 19:45 0,4 C 80 % 1020,0 hPa 0,0 l/m 0,0 km/h (0 Bft) S-SW 194 0 min 0,000 mm 0,0 UV-I 0 W/m -2,6 C 0,4 C 0,0 km/h (0 Bft) 0,00 %
16.02.2015 20:00 0,3 C 80 % 1020,4 hPa 0,0 l/m 0,0 km/h (0 Bft) SO 143 0 min 0,000 mm 0,0 UV-I 0 W/m -2,7 C 0,3 C 0,0 km/h (0 Bft) 0,00 %
16.02.2015 20:15 0,2 C 80 % 1020,3 hPa 0,0 l/m 0,0 km/h (0 Bft) S 181 0 min 0,000 mm 0,0 UV-I 0 W/m -2,8 C 0,2 C 0,0 km/h (0 Bft) 0,00 %
16.02.2015 20:30 0,6 C 79 % 1020,4 hPa 0,0 l/m 0,0 km/h (0 Bft) SW 224 0 min 0,000 mm 0,0 UV-I 0 W/m -2,6 C 0,6 C 0,0 km/h (0 Bft) 0,00 %
16.02.2015 20:45 -0,1 C 80 % 1020,8 hPa 0,0 l/m 0,0 km/h (0 Bft) S-SW 194 0 min 0,000 mm 0,0 UV-I 0 W/m -3,1 C -0,1 C 0,0 km/h (0 Bft) 0,00 %
16.02.2015 21:00 -0,1 C 79 % 1020,7 hPa 0,0 l/m 0,0 km/h (0 Bft) S 187 0 min 0,000 mm 0,0 UV-I 0 W/m -3,3 C -0,1 C 0,0 km/h (0 Bft) 0,00 %
16.02.2015 21:15 0,5 C 74 % 1020,8 hPa 0,0 l/m 0,0 km/h (0 Bft) S 183 0 min 0,000 mm 0,0 UV-I 0 W/m -3,6 C 0,5 C 0,0 km/h (0 Bft) 0,00 %
16.02.2015 21:30 0,5 C 73 % 1021,0 hPa 0,0 l/m 0,0 km/h (0 Bft) S 178 0 min 0,000 mm 0,0 UV-I 0 W/m -3,8 C 0,5 C 0,0 km/h (0 Bft) 0,00 %
16.02.2015 21:45 0,3 C 74 % 1021,0 hPa 0,0 l/m 0,0 km/h (0 Bft) S 181 0 min 0,000 mm 0,0 UV-I 0 W/m -3,8 C 0,3 C 0,0 km/h (0 Bft) 0,00 %
16.02.2015 22:00 0,1 C 74 % 1021,2 hPa 0,0 l/m 0,0 km/h (0 Bft) S 186 0 min 0,000 mm 0,0 UV-I 0 W/m -4,0 C 0,1 C 0,0 km/h (0 Bft) 0,00 %
16.02.2015 22:15 0,2 C 72 % 1021,3 hPa 0,0 l/m 0,0 km/h (0 Bft) SO 132 0 min 0,000 mm 0,0 UV-I 0 W/m -4,2 C 0,2 C 0,0 km/h (0 Bft) 0,00 %
16.02.2015 22:30 0,3 C 72 % 1021,3 hPa 0,0 l/m 0,0 km/h (0 Bft) S 190 0 min 0,000 mm 0,0 UV-I 0 W/m -4,1 C 0,3 C 0,0 km/h (0 Bft) 0,00 %
16.02.2015 22:45 0,4 C 71 % 1021,5 hPa 0,0 l/m 0,0 km/h (0 Bft) S 174 0 min 0,000 mm 0,0 UV-I 0 W/m -4,2 C 0,4 C 0,0 km/h (0 Bft) 0,00 %
16.02.2015 23:00 0,4 C 70 % 1021,4 hPa 0,0 l/m 0,0 km/h (0 Bft) S-SW 196 0 min 0,000 mm 0,0 UV-I 0 W/m -4,4 C 0,4 C 0,0 km/h (0 Bft) 0,00 %
16.02.2015 23:15 0,4 C 71 % 1021,4 hPa 0,0 l/m 0,0 km/h (0 Bft) S 185 0 min 0,000 mm 0,0 UV-I 0 W/m -4,2 C 0,4 C 0,0 km/h (0 Bft) 0,00 %
16.02.2015 23:30 -0,2 C 72 % 1021,7 hPa 0,0 l/m 0,0 km/h (0 Bft) S 187 0 min 0,000 mm 0,0 UV-I 0 W/m -4,6 C -0,2 C 0,0 km/h (0 Bft) 0,00 %
16.02.2015 23:45 -0,3 C 73 % 1021,8 hPa 0,0 l/m 0,0 km/h (0 Bft) SW 214 0 min 0,000 mm 0,0 UV-I 0 W/m -4,5 C -0,3 C 0,0 km/h (0 Bft) 0,00 %
_ Min-Zeit 07:15 16:45 14:30 - 00:00 - - - - - - 07:15 07:15 00:00 00:00
Minimum _ -5,8 C 52 % 1016,1 hPa - 0,0 km/h (0 Bft) - - - - - - -8,5 C -5,8 C 0,0 km/h (0 Bft) 0,00 %
_ Max-Zeit 16:45 03:15 23:45 10:00 12:45 - - 13:30 00:00 09:30 13:30 17:30 16:45 14:15 00:00
Maximum _ 8,4 C 82 % 1021,8 hPa 0,3 l/m 7,2 km/h
O-SO (2 Bft)
- - 15 min 0,000 mm 2,0 UV-I 287 W/m -0,2 C 8,4 C 11,9 km/h
O-SO (2 Bft)
0,00 %
Durchschnitt _ 0,2 C 73 % 1018,7 hPa #0,3 l/m 0,4 km/h (0 Bft) O-SO - #2:15 h #0,000 mm 1,6 UV-I 175 W/m -4,2 C 0,2 C 0,8 km/h (0 Bft) 0,00 %